logo tempoitalia

Diretta Meteo Clarion, Stati Uniti (USA)lunedì 31 agosto ore 01:35

Mappa
Sereno 23 °C Sereno 24 Ore: T.min 20 T.max 28
Ponente Sud Km/h 9.3 Punto di rugiada: 23 °C Umidità: 100% Visibilità: 10 Km
Il sole sorge alle: 06:39 Il sole tramonta alle: 19:51
31 Agosto 2026 01:35 tempo osservato: Sereno Sereno 23 100 1009 vento: Nord S 9.3
31 Agosto 2026 01:15 tempo osservato: Sereno Sereno 24 100 1009 vento: Nord N 7.4
31 Agosto 2026 00:55 tempo osservato: Sereno Sereno 24 100 1009 vento: Nord S 9.3
31 Agosto 2026 00:35 tempo osservato: Sereno Sereno 24 100 1009 vento: Nord S/SE 13
31 Agosto 2026 00:15 tempo osservato: Sereno Sereno 24 100 1009 vento: Nord S/SE 13
30 Agosto 2026 23:55 tempo osservato: Sereno Sereno 23 100 1009 vento: Nord S/SE 9.3
30 Agosto 2026 23:35 tempo osservato: Sereno Sereno 23 100 1009 vento: Nord S/SE 11.1
30 Agosto 2026 23:15 tempo osservato: Sereno Sereno 23 100 1009 vento: Nord S/SE 13
30 Agosto 2026 22:55 tempo osservato: Poco Nuvoloso Poco Nuvoloso 24 100 1009 vento: Nord S/SE 14.8
30 Agosto 2026 22:35 tempo osservato: Sereno Sereno 23 100 1009 vento: Nord S/SE 14.8
30 Agosto 2026 22:15 tempo osservato: Poco Nuvoloso Poco Nuvoloso 24 100 1010 vento: Nord S/SE 16.7
30 Agosto 2026 21:55 tempo osservato: Sereno Sereno 24 100 1010 vento: Nord SE 16.7
30 Agosto 2026 21:35 tempo osservato: Sereno Sereno 24 100 1010 vento: Nord SE 16.7
30 Agosto 2026 21:15 tempo osservato: Sereno Sereno 24 100 1010 vento: Nord S/SE 16.7
30 Agosto 2026 20:55 tempo osservato: Sereno Sereno 24 100 1010 vento: Nord SE 13
30 Agosto 2026 20:35 tempo osservato: Sereno Sereno 24 100 1010 vento: Nord S/SE 13
30 Agosto 2026 20:15 tempo osservato: Sereno Sereno 24 100 1010 vento: Nord S/SE 14.8
30 Agosto 2026 19:55 tempo osservato: Sereno Sereno 25 100 1010 vento: Nord S/SE 14.8
30 Agosto 2026 19:35 tempo osservato: Sereno Sereno 25 100 1010 vento: Nord S/SE 16.7
30 Agosto 2026 19:15 tempo osservato: Sereno Sereno 25 100 1009 vento: Nord S/SE 16.7
30 Agosto 2026 18:55 tempo osservato: Sereno Sereno 26 100 1009 vento: Nord S/SE 16.7
30 Agosto 2026 18:35 tempo osservato: Sereno Sereno 26 100 1009 vento: Nord S/SE 18.5
30 Agosto 2026 18:15 tempo osservato: Sereno Sereno 25 100 1010 vento: Nord S/SE 13
30 Agosto 2026 17:55 tempo osservato: Sereno Sereno 25 100 1009 vento: Nord S/SE 16.7
30 Agosto 2026 17:35 tempo osservato: Sereno Sereno 25 100 1009 vento: Nord S/SE 14.8
30 Agosto 2026 17:15 tempo osservato: Sereno Sereno 26 88 1009 vento: Nord S/SE 18.5
30 Agosto 2026 16:55 tempo osservato: Sereno Sereno 26 94 1009 vento: Nord S/SE 18.5
30 Agosto 2026 16:35 tempo osservato: Sereno Sereno 26 94 1009 vento: Nord S 18.5
30 Agosto 2026 16:15 tempo osservato: Sereno Sereno 26 94 1009 vento: Nord S 14.8
30 Agosto 2026 15:55 tempo osservato: Sereno Sereno 27 83 1009 vento: Nord S 18.5
30 Agosto 2026 15:35 tempo osservato: Sereno Sereno 27 83 1009 vento: Nord S 18.5
30 Agosto 2026 15:15 tempo osservato: Sereno Sereno 28 78 1010 vento: Nord S 20.3
30 Agosto 2026 14:55 tempo osservato: Sereno Sereno 28 78 1010 vento: Nord S 18.5
30 Agosto 2026 14:35 tempo osservato: Sereno Sereno 28 74 1009 vento: Nord S/SE 18.5
30 Agosto 2026 14:15 tempo osservato: Sereno Sereno 27 88 1009 vento: Nord S 18.5
30 Agosto 2026 13:55 tempo osservato: Sereno Sereno 26 88 1010 vento: Nord S/SE 14.8
30 Agosto 2026 13:35 tempo osservato: Sereno Sereno 26 94 1010 vento: Nord S/SE 13
30 Agosto 2026 13:15 tempo osservato: Sereno Sereno 24 100 1010 vento: Nord S 14.8
30 Agosto 2026 12:55 tempo osservato: Sereno Sereno 24 100 1010 vento: Nord S 14.8
30 Agosto 2026 12:35 tempo osservato: Sereno Sereno 25 100 1010 vento: Nord S 14.8
30 Agosto 2026 12:15 tempo osservato: Sereno Sereno 24 100 1010 vento: Nord S 14.8
30 Agosto 2026 11:55 tempo osservato: Sereno Sereno 24 100 1010 vento: Nord S 14.8
30 Agosto 2026 11:35 tempo osservato: Sereno Sereno 23 100 1010 vento: Nord S/SE 14.8
30 Agosto 2026 11:15 tempo osservato: Sereno Sereno 23 100 1010 vento: Nord S 7.4
30 Agosto 2026 10:55 tempo osservato: Poco Nuvoloso Poco Nuvoloso 23 100 1010 vento: Nord O 9.3
30 Agosto 2026 10:35 tempo osservato: Molto Nuvoloso Molto Nuvoloso 23 100 1010 vento: Nord O/SO 7.4
30 Agosto 2026 10:15 tempo osservato: Molto Nuvoloso Molto Nuvoloso 23 100 1010 vento: Nord S/SO 13
30 Agosto 2026 09:55 tempo osservato: Foschia Foschia 22 100 1010 vento: Nord S/SE 11.1
30 Agosto 2026 09:35 tempo osservato: Foschia Foschia 22 100 1010 vento: Nord SO 14.8
30 Agosto 2026 09:15 tempo osservato: Sereno Sereno 24 100 1009 vento: Nord S/SO 13
30 Agosto 2026 08:55 tempo osservato: Sereno Sereno 23 100 1009 vento: Nord S 13
30 Agosto 2026 08:35 tempo osservato: Sereno Sereno 23 100 1009 vento: Nord S 13
30 Agosto 2026 08:15 tempo osservato: Sereno Sereno 22 100 1009 vento: Nord S 13
30 Agosto 2026 07:55 tempo osservato: Sereno Sereno 22 100 1009 vento: Nord S 13
30 Agosto 2026 07:35 tempo osservato: Sereno Sereno 22 100 1009 vento: Nord S/SE 9.3
30 Agosto 2026 07:15 tempo osservato: Sereno Sereno 21 100 1009 vento: Nord S 11.1
30 Agosto 2026 06:55 tempo osservato: Sereno Sereno 21 100 1009 vento: Nord S 11.1
30 Agosto 2026 06:35 tempo osservato: Sereno Sereno 21 100 1009 vento: Nord S 13
30 Agosto 2026 06:15 tempo osservato: Sereno Sereno 21 100 1009 vento: Nord S 11.1
30 Agosto 2026 05:55 tempo osservato: Sereno Sereno 21 100 1009 vento: Nord S 14.8
30 Agosto 2026 05:35 tempo osservato: Sereno Sereno 21 100 1009 vento: Nord S 13
30 Agosto 2026 05:15 tempo osservato: Sereno Sereno 21 100 1009 vento: Nord S 13
30 Agosto 2026 04:55 tempo osservato: Sereno Sereno 21 100 1009 vento: Nord S 14.8
30 Agosto 2026 04:35 tempo osservato: Sereno Sereno 21 100 1009 vento: Nord S 14.8
30 Agosto 2026 04:15 tempo osservato: Sereno Sereno 21 100 1009 vento: Nord S 20.3
30 Agosto 2026 03:55 tempo osservato: Sereno Sereno 21 100 1009 vento: Nord S 16.7
30 Agosto 2026 03:35 tempo osservato: Poco Nuvoloso Poco Nuvoloso 21 100 1009 vento: Nord S 18.5
30 Agosto 2026 03:15 tempo osservato: Nuvoloso Nuvoloso 21 100 1009 vento: Nord S 13
30 Agosto 2026 02:55 tempo osservato: Nuvoloso Nuvoloso 21 100 1009 vento: Nord S 11.1
30 Agosto 2026 02:35 tempo osservato: Nuvoloso Nuvoloso 20 100 1009 vento: Nord S 11.1
30 Agosto 2026 02:15 tempo osservato: Nuvoloso Nuvoloso 21 100 1009 vento: Nord S 11.1
30 Agosto 2026 01:55 tempo osservato: Poco Nuvoloso Poco Nuvoloso 21 100 1010 vento: Nord S/SE 9.3
30 Agosto 2026 01:35 tempo osservato: Poco Nuvoloso Poco Nuvoloso 22 100 1010 vento: Nord S/SE 9.3